Year,Month,Day,Hour,Minute,Value (Times are PST for temperature in C)
2015,09,20,00,00,14.40
2015,09,20,00,01,14.40
2015,09,20,00,02,14.40
2015,09,20,00,03,14.40
2015,09,20,00,04,14.40
2015,09,20,00,05,14.40
2015,09,20,00,06,14.40
2015,09,20,00,07,14.50
2015,09,20,00,08,14.50
2015,09,20,00,09,14.50
2015,09,20,00,10,14.50
2015,09,20,00,11,14.60
2015,09,20,00,12,14.60
2015,09,20,00,13,14.60
2015,09,20,00,14,14.60
2015,09,20,00,15,14.60
2015,09,20,00,16,14.60
2015,09,20,00,17,14.60
2015,09,20,00,18,14.60
2015,09,20,00,19,14.70
2015,09,20,00,20,14.70
2015,09,20,00,21,14.70
2015,09,20,00,22,14.70
2015,09,20,00,23,14.70
2015,09,20,00,24,14.70
2015,09,20,00,25,14.70
2015,09,20,00,26,14.70
2015,09,20,00,27,14.70
2015,09,20,00,28,14.70
2015,09,20,00,29,14.70
2015,09,20,00,30,14.70
2015,09,20,00,31,14.70
2015,09,20,00,32,14.70
2015,09,20,00,33,14.70
2015,09,20,00,34,14.70
2015,09,20,00,35,14.70
2015,09,20,00,36,14.70
2015,09,20,00,37,14.70
2015,09,20,00,38,14.70
2015,09,20,00,39,14.70
2015,09,20,00,40,14.70
2015,09,20,00,41,14.70
2015,09,20,00,42,14.70
2015,09,20,00,43,14.70
2015,09,20,00,44,14.70
2015,09,20,00,45,14.80
2015,09,20,00,46,14.80
2015,09,20,00,47,14.80
2015,09,20,00,48,14.80
2015,09,20,00,49,14.80
2015,09,20,00,50,14.80
2015,09,20,00,51,14.80
2015,09,20,00,52,14.80
2015,09,20,00,53,14.80
2015,09,20,00,54,14.90
2015,09,20,00,55,14.90
2015,09,20,00,56,14.90
2015,09,20,00,57,14.90
2015,09,20,00,58,14.90
2015,09,20,00,59,14.90
2015,09,20,01,00,14.90
2015,09,20,01,01,14.90
2015,09,20,01,02,14.90
2015,09,20,01,03,14.90
2015,09,20,01,04,14.90
2015,09,20,01,05,15.00
2015,09,20,01,06,15.00
2015,09,20,01,07,15.00
2015,09,20,01,08,15.00
2015,09,20,01,09,15.10
2015,09,20,01,10,15.10
2015,09,20,01,11,15.10
2015,09,20,01,12,15.10
2015,09,20,01,13,15.10
2015,09,20,01,14,15.10
2015,09,20,01,15,15.10
2015,09,20,01,16,15.10
2015,09,20,01,17,15.10
2015,09,20,01,18,15.10
2015,09,20,01,19,15.10
2015,09,20,01,20,15.20
2015,09,20,01,21,15.20
2015,09,20,01,22,15.20
2015,09,20,01,23,15.20
2015,09,20,01,24,15.20
2015,09,20,01,25,15.20
2015,09,20,01,26,15.20
2015,09,20,01,27,15.20
2015,09,20,01,28,15.20
2015,09,20,01,29,15.20
2015,09,20,01,30,15.20
2015,09,20,01,31,15.20
2015,09,20,01,32,15.20
2015,09,20,01,33,15.20
2015,09,20,01,34,15.20
2015,09,20,01,35,15.20
2015,09,20,01,36,15.20
2015,09,20,01,37,15.30
2015,09,20,01,38,15.30
2015,09,20,01,39,15.30
2015,09,20,01,40,15.30
2015,09,20,01,41,15.30
2015,09,20,01,42,15.30
2015,09,20,01,43,15.30
2015,09,20,01,44,15.30
2015,09,20,01,45,15.30
2015,09,20,01,46,15.30
2015,09,20,01,47,15.30
2015,09,20,01,48,15.30
2015,09,20,01,49,15.30
2015,09,20,01,50,15.30
2015,09,20,01,51,15.30
2015,09,20,01,52,15.30
2015,09,20,01,53,15.30
2015,09,20,01,54,15.30
2015,09,20,01,55,15.30
2015,09,20,01,56,15.30
2015,09,20,01,57,15.30
2015,09,20,01,58,15.30
2015,09,20,01,59,15.30
2015,09,20,02,00,15.30
2015,09,20,02,01,15.30
2015,09,20,02,02,15.30
2015,09,20,02,03,15.30
2015,09,20,02,04,15.30
2015,09,20,02,05,15.30
2015,09,20,02,06,15.30
2015,09,20,02,07,15.30
2015,09,20,02,08,15.30
2015,09,20,02,09,15.30
2015,09,20,02,10,15.30
2015,09,20,02,11,15.30
2015,09,20,02,12,15.30
2015,09,20,02,13,15.30
2015,09,20,02,14,15.30
2015,09,20,02,15,15.30
2015,09,20,02,16,15.30
2015,09,20,02,17,15.30
2015,09,20,02,18,15.30
2015,09,20,02,19,15.30
2015,09,20,02,20,15.30
2015,09,20,02,21,15.30
2015,09,20,02,22,15.30
2015,09,20,02,23,15.30
2015,09,20,02,24,15.30
2015,09,20,02,25,15.30
2015,09,20,02,26,15.30
2015,09,20,02,27,15.30
2015,09,20,02,28,15.30
2015,09,20,02,29,15.30
2015,09,20,02,30,15.40
2015,09,20,02,31,15.30
2015,09,20,02,32,15.40
2015,09,20,02,33,15.30
2015,09,20,02,34,15.30
2015,09,20,02,35,15.30
2015,09,20,02,36,15.30
2015,09,20,02,37,15.30
2015,09,20,02,38,15.30
2015,09,20,02,39,15.30
2015,09,20,02,40,15.30
2015,09,20,02,41,15.30
2015,09,20,02,42,15.30
2015,09,20,02,43,15.30
2015,09,20,02,44,15.30
2015,09,20,02,45,15.30
2015,09,20,02,46,15.30
2015,09,20,02,47,15.30
2015,09,20,02,48,15.30
2015,09,20,02,49,15.30
2015,09,20,02,50,15.30
2015,09,20,02,51,15.30
2015,09,20,02,52,15.30
2015,09,20,02,53,15.30
2015,09,20,02,54,15.30
2015,09,20,02,55,15.30
2015,09,20,02,56,15.30
2015,09,20,02,57,15.30
2015,09,20,02,58,15.30
2015,09,20,02,59,15.30
2015,09,20,03,00,15.30
2015,09,20,03,01,15.20
2015,09,20,03,02,15.20
2015,09,20,03,03,15.20
2015,09,20,03,04,15.20
2015,09,20,03,05,15.20
2015,09,20,03,06,15.20
2015,09,20,03,07,15.20
2015,09,20,03,08,15.20
2015,09,20,03,09,15.20
2015,09,20,03,10,15.20
2015,09,20,03,11,15.20
2015,09,20,03,12,15.20
2015,09,20,03,13,15.20
2015,09,20,03,14,15.10
2015,09,20,03,15,15.10
2015,09,20,03,16,15.10
2015,09,20,03,17,15.10
2015,09,20,03,18,15.10
2015,09,20,03,19,15.10
2015,09,20,03,20,15.10
2015,09,20,03,21,15.10
2015,09,20,03,22,15.10
2015,09,20,03,23,15.10
2015,09,20,03,24,15.10
2015,09,20,03,25,15.10
2015,09,20,03,26,15.10
2015,09,20,03,27,15.10
2015,09,20,03,28,15.10
2015,09,20,03,29,15.10
2015,09,20,03,30,15.10
2015,09,20,03,31,15.10
2015,09,20,03,32,15.10
2015,09,20,03,33,15.10
2015,09,20,03,34,15.10
2015,09,20,03,35,15.10
2015,09,20,03,36,15.10
2015,09,20,03,37,15.10
2015,09,20,03,38,15.10
2015,09,20,03,39,15.10
2015,09,20,03,40,15.10
2015,09,20,03,41,15.10
2015,09,20,03,42,15.10
2015,09,20,03,43,15.10
2015,09,20,03,44,15.10
2015,09,20,03,45,15.10
2015,09,20,03,46,15.10
2015,09,20,03,47,15.10
2015,09,20,03,48,15.10
2015,09,20,03,49,15.10
2015,09,20,03,50,15.10
2015,09,20,03,51,15.10
2015,09,20,03,52,15.10
2015,09,20,03,53,15.10
2015,09,20,03,54,15.10
2015,09,20,03,55,15.20
2015,09,20,03,56,15.20
2015,09,20,03,57,15.20
2015,09,20,03,58,15.20
2015,09,20,03,59,15.20
2015,09,20,04,00,15.10
2015,09,20,04,01,15.10
2015,09,20,04,02,15.10
2015,09,20,04,03,15.10
2015,09,20,04,04,15.10
2015,09,20,04,05,15.10
2015,09,20,04,06,15.10
2015,09,20,04,07,15.10
2015,09,20,04,08,15.10
2015,09,20,04,09,15.10
2015,09,20,04,10,15.10
2015,09,20,04,11,15.10
2015,09,20,04,12,15.10
2015,09,20,04,13,15.10
2015,09,20,04,14,15.10
2015,09,20,04,15,15.20
2015,09,20,04,16,15.20
2015,09,20,04,17,15.20
2015,09,20,04,18,15.10
2015,09,20,04,19,15.10
2015,09,20,04,20,15.10
2015,09,20,04,21,15.20
2015,09,20,04,22,15.20
2015,09,20,04,23,15.20
2015,09,20,04,24,15.20
2015,09,20,04,25,15.20
2015,09,20,04,26,15.20
2015,09,20,04,27,15.20
2015,09,20,04,28,15.20
2015,09,20,04,29,15.20
2015,09,20,04,30,15.20
2015,09,20,04,31,15.20
2015,09,20,04,32,15.20
2015,09,20,04,33,15.20
2015,09,20,04,34,15.20
2015,09,20,04,35,15.20
2015,09,20,04,36,15.20
2015,09,20,04,37,15.20
2015,09,20,04,38,15.20
2015,09,20,04,39,15.20
2015,09,20,04,40,15.20
2015,09,20,04,41,15.20
2015,09,20,04,42,15.20
2015,09,20,04,43,15.20
2015,09,20,04,44,15.20
2015,09,20,04,45,15.20
2015,09,20,04,46,15.20
2015,09,20,04,47,15.20
2015,09,20,04,48,15.20
2015,09,20,04,49,15.20
2015,09,20,04,50,15.20
2015,09,20,04,51,15.20
2015,09,20,04,52,15.30
2015,09,20,04,53,15.30
2015,09,20,04,54,15.30
2015,09,20,04,55,15.30
2015,09,20,04,56,15.30
2015,09,20,04,57,15.30
2015,09,20,04,58,15.30
2015,09,20,04,59,15.30
2015,09,20,05,00,15.30
2015,09,20,05,01,15.30
2015,09,20,05,02,15.30
2015,09,20,05,03,15.30
2015,09,20,05,04,15.30
2015,09,20,05,05,15.30
2015,09,20,05,06,15.30
2015,09,20,05,07,15.30
2015,09,20,05,08,15.30
2015,09,20,05,09,15.30
2015,09,20,05,10,15.20
2015,09,20,05,11,15.30
2015,09,20,05,12,15.20
2015,09,20,05,13,15.30
2015,09,20,05,14,15.30
2015,09,20,05,15,15.20
2015,09,20,05,16,15.30
2015,09,20,05,17,15.30
2015,09,20,05,18,15.30
2015,09,20,05,19,15.30
2015,09,20,05,20,15.20
2015,09,20,05,21,15.20
2015,09,20,05,22,15.20
2015,09,20,05,23,15.20
2015,09,20,05,24,15.20
2015,09,20,05,25,15.20
2015,09,20,05,26,15.20
2015,09,20,05,27,15.20
2015,09,20,05,28,15.20
2015,09,20,05,29,15.20
2015,09,20,05,30,15.20
2015,09,20,05,31,15.20
2015,09,20,05,32,15.20
2015,09,20,05,33,15.20
2015,09,20,05,34,15.20
2015,09,20,05,35,15.20
2015,09,20,05,36,15.20
2015,09,20,05,37,15.10
2015,09,20,05,38,15.10
2015,09,20,05,39,15.10
2015,09,20,05,40,15.10
2015,09,20,05,41,15.10
2015,09,20,05,42,15.10
2015,09,20,05,43,15.10
2015,09,20,05,44,15.10
2015,09,20,05,45,15.10
2015,09,20,05,46,15.10
2015,09,20,05,47,15.10
2015,09,20,05,48,15.10
2015,09,20,05,49,15.10
2015,09,20,05,50,15.20
2015,09,20,05,51,15.10
2015,09,20,05,52,15.10
2015,09,20,05,53,15.10
2015,09,20,05,54,15.10
2015,09,20,05,55,15.10
2015,09,20,05,56,15.10
2015,09,20,05,57,15.10
2015,09,20,05,58,15.10
2015,09,20,05,59,15.10
2015,09,20,06,00,15.10
2015,09,20,06,01,15.10
2015,09,20,06,02,15.10
2015,09,20,06,03,15.10
2015,09,20,06,04,15.10
2015,09,20,06,05,15.10
2015,09,20,06,06,15.10
2015,09,20,06,07,15.10
2015,09,20,06,08,15.10
2015,09,20,06,09,15.10
2015,09,20,06,10,15.10
2015,09,20,06,11,15.10
2015,09,20,06,12,15.10
2015,09,20,06,13,15.10
2015,09,20,06,14,15.10
2015,09,20,06,15,15.10
2015,09,20,06,16,15.10
2015,09,20,06,17,15.10
2015,09,20,06,18,15.10
2015,09,20,06,19,15.10
2015,09,20,06,20,15.10
2015,09,20,06,21,15.10
2015,09,20,06,22,15.10
2015,09,20,06,23,15.10
2015,09,20,06,24,15.10
2015,09,20,06,25,15.10
2015,09,20,06,26,15.10
2015,09,20,06,27,15.10
2015,09,20,06,28,15.10
2015,09,20,06,29,15.10
2015,09,20,06,30,15.10
2015,09,20,06,31,15.10
2015,09,20,06,32,15.10
2015,09,20,06,33,15.10
2015,09,20,06,34,15.00
2015,09,20,06,35,15.00
2015,09,20,06,36,15.00
2015,09,20,06,37,15.00
2015,09,20,06,38,15.00
2015,09,20,06,39,15.00
2015,09,20,06,40,14.90
2015,09,20,06,41,14.90
2015,09,20,06,42,14.90
2015,09,20,06,43,14.90
2015,09,20,06,44,14.90
2015,09,20,06,45,14.90
2015,09,20,06,46,14.90
2015,09,20,06,47,14.90
2015,09,20,06,48,14.90
2015,09,20,06,49,14.90
2015,09,20,06,50,14.90
2015,09,20,06,51,14.90
2015,09,20,06,52,14.90
2015,09,20,06,53,14.90
2015,09,20,06,54,14.90
2015,09,20,06,55,14.90
2015,09,20,06,56,14.90
2015,09,20,06,57,14.90
2015,09,20,06,58,14.90
2015,09,20,06,59,14.90
2015,09,20,07,00,14.90
2015,09,20,07,01,14.80
2015,09,20,07,02,14.80
2015,09,20,07,03,14.80
2015,09,20,07,04,14.80
2015,09,20,07,05,14.70
2015,09,20,07,06,14.70
2015,09,20,07,07,14.70
2015,09,20,07,08,14.60
2015,09,20,07,09,14.60
2015,09,20,07,10,14.60
2015,09,20,07,11,14.60
2015,09,20,07,12,14.60
2015,09,20,07,13,14.60
2015,09,20,07,14,14.60
2015,09,20,07,15,14.60
2015,09,20,07,16,14.60
2015,09,20,07,17,14.60
2015,09,20,07,18,14.70
2015,09,20,07,19,14.70
2015,09,20,07,20,14.70
2015,09,20,07,21,14.70
2015,09,20,07,22,14.70
2015,09,20,07,23,14.70
2015,09,20,07,24,14.70
2015,09,20,07,25,14.70
2015,09,20,07,26,14.70
2015,09,20,07,27,14.70
2015,09,20,07,28,14.80
2015,09,20,07,29,14.80
2015,09,20,07,30,14.80
2015,09,20,07,31,14.80
2015,09,20,07,32,14.80
2015,09,20,07,33,14.80
2015,09,20,07,34,14.80
2015,09,20,07,35,14.80
2015,09,20,07,36,14.90
2015,09,20,07,37,14.90
2015,09,20,07,38,14.90
2015,09,20,07,39,14.90
2015,09,20,07,40,14.90
2015,09,20,07,41,14.90
2015,09,20,07,42,14.90
2015,09,20,07,43,14.90
2015,09,20,07,44,14.90
2015,09,20,07,45,14.90
2015,09,20,07,46,14.90
2015,09,20,07,47,14.90
2015,09,20,07,48,14.90
2015,09,20,07,49,14.90
2015,09,20,07,50,14.90
2015,09,20,07,51,14.90
2015,09,20,07,52,14.90
2015,09,20,07,53,14.90
2015,09,20,07,54,14.90
2015,09,20,07,55,14.90
2015,09,20,07,56,14.90
2015,09,20,07,57,14.90
2015,09,20,07,58,14.90
2015,09,20,07,59,14.90
2015,09,20,08,00,14.90
2015,09,20,08,01,15.00
2015,09,20,08,02,15.00
2015,09,20,08,03,15.00
2015,09,20,08,04,15.00
2015,09,20,08,05,15.00
2015,09,20,08,06,15.10
2015,09,20,08,07,15.10
2015,09,20,08,08,15.10
2015,09,20,08,09,15.10
2015,09,20,08,10,15.10
2015,09,20,08,11,15.10
2015,09,20,08,12,15.10
2015,09,20,08,13,15.10
2015,09,20,08,14,15.10
2015,09,20,08,15,15.10
2015,09,20,08,16,15.10
2015,09,20,08,17,15.10
2015,09,20,08,18,15.10
2015,09,20,08,19,15.20
2015,09,20,08,20,15.20
2015,09,20,08,21,15.20
2015,09,20,08,22,15.20
2015,09,20,08,23,15.20
2015,09,20,08,24,15.20
2015,09,20,08,25,15.20
2015,09,20,08,26,15.20
2015,09,20,08,27,15.20
2015,09,20,08,28,15.20
2015,09,20,08,29,15.20
2015,09,20,08,30,15.20
2015,09,20,08,31,15.20
2015,09,20,08,32,15.20
2015,09,20,08,33,15.10
2015,09,20,08,34,15.10
2015,09,20,08,35,15.10
2015,09,20,08,36,15.10
2015,09,20,08,37,15.10
2015,09,20,08,38,15.10
2015,09,20,08,39,15.10
2015,09,20,08,40,15.10
2015,09,20,08,41,15.10
2015,09,20,08,42,15.00
2015,09,20,08,43,15.00
2015,09,20,08,44,15.00
2015,09,20,08,45,14.90
2015,09,20,08,46,14.90
2015,09,20,08,47,14.90
2015,09,20,08,48,14.90
2015,09,20,08,49,14.90
2015,09,20,08,50,14.90
2015,09,20,08,51,14.90
2015,09,20,08,52,14.90
2015,09,20,08,53,14.90
2015,09,20,08,54,14.90
2015,09,20,08,55,14.90
2015,09,20,08,56,14.90
2015,09,20,08,57,14.80
2015,09,20,08,58,14.80
2015,09,20,08,59,14.70
2015,09,20,09,00,14.70
2015,09,20,09,01,14.60
2015,09,20,09,02,14.50
2015,09,20,09,03,14.50
2015,09,20,09,04,14.40
2015,09,20,09,05,14.40
2015,09,20,09,06,14.40
2015,09,20,09,07,14.40
2015,09,20,09,08,14.40
2015,09,20,09,09,14.40
2015,09,20,09,10,14.40
2015,09,20,09,11,14.30
2015,09,20,09,12,14.30
2015,09,20,09,13,14.30
2015,09,20,09,14,14.30
2015,09,20,09,15,14.30
2015,09,20,09,16,14.30
2015,09,20,09,17,14.30
2015,09,20,09,18,14.30
2015,09,20,09,19,14.30
2015,09,20,09,20,14.30
2015,09,20,09,21,14.30
2015,09,20,09,22,14.30
2015,09,20,09,23,14.30
2015,09,20,09,24,14.30
2015,09,20,09,25,14.30
2015,09,20,09,26,14.40
2015,09,20,09,27,14.40
2015,09,20,09,28,14.40
2015,09,20,09,29,14.40
2015,09,20,09,30,14.40
2015,09,20,09,31,14.40
2015,09,20,09,32,14.40
2015,09,20,09,33,14.40
2015,09,20,09,34,14.30
2015,09,20,09,35,14.30
2015,09,20,09,36,14.30
2015,09,20,09,37,14.20
2015,09,20,09,38,14.10
2015,09,20,09,39,14.10
2015,09,20,09,40,14.00
2015,09,20,09,41,13.90
2015,09,20,09,42,13.80
2015,09,20,09,43,13.80
2015,09,20,09,44,13.70
2015,09,20,09,45,13.70
2015,09,20,09,46,13.60
2015,09,20,09,47,13.60
2015,09,20,09,48,13.50
2015,09,20,09,49,13.50
2015,09,20,09,50,13.50
2015,09,20,09,51,13.40
2015,09,20,09,52,13.40
2015,09,20,09,53,13.40
2015,09,20,09,54,13.30
2015,09,20,09,55,13.20
2015,09,20,09,56,13.10
2015,09,20,09,57,13.00
2015,09,20,09,58,13.00
2015,09,20,09,59,12.90
2015,09,20,10,00,12.90
2015,09,20,10,01,12.90
2015,09,20,10,02,12.80
2015,09,20,10,03,12.80
2015,09,20,10,04,12.80
2015,09,20,10,05,12.80
2015,09,20,10,06,12.80
2015,09,20,10,07,12.80
2015,09,20,10,08,12.80
2015,09,20,10,09,12.80
2015,09,20,10,10,12.80
2015,09,20,10,11,12.80
2015,09,20,10,12,12.80
2015,09,20,10,13,12.80
2015,09,20,12,34,10.90
2015,09,20,12,35,10.90
2015,09,20,12,36,10.90
2015,09,20,12,37,10.90
2015,09,20,12,38,10.80
2015,09,20,12,39,10.80
2015,09,20,12,40,10.80
2015,09,20,12,41,10.80
2015,09,20,12,42,10.80
2015,09,20,12,43,10.80
2015,09,20,12,44,10.80
2015,09,20,12,45,10.80
2015,09,20,12,46,10.80
2015,09,20,12,47,10.80
2015,09,20,12,48,10.80
2015,09,20,12,49,10.80
2015,09,20,12,50,10.80
2015,09,20,12,51,10.80
2015,09,20,12,52,10.80
2015,09,20,12,53,10.80
2015,09,20,12,54,10.80
2015,09,20,12,55,10.80
2015,09,20,12,56,10.80
2015,09,20,12,57,10.80
2015,09,20,12,58,10.80
2015,09,20,12,59,10.80
2015,09,20,13,00,10.90
2015,09,20,13,01,10.90
2015,09,20,13,02,10.90
2015,09,20,13,03,10.90
2015,09,20,13,04,11.00
2015,09,20,13,05,11.00
2015,09,20,13,06,11.10
2015,09,20,13,07,11.10
2015,09,20,13,08,11.10
2015,09,20,13,09,11.10
2015,09,20,13,10,11.20
2015,09,20,13,11,11.20
2015,09,20,13,12,11.20
2015,09,20,13,13,11.30
2015,09,20,13,14,11.30
2015,09,20,13,15,11.30
2015,09,20,13,16,11.30
2015,09,20,13,17,11.30
2015,09,20,13,18,11.30
2015,09,20,13,19,11.20
2015,09,20,13,20,11.20
2015,09,20,13,21,11.20
2015,09,20,13,22,11.10
2015,09,20,13,23,11.10
2015,09,20,13,24,11.10
2015,09,20,13,25,11.00
2015,09,20,13,26,11.00
2015,09,20,13,27,11.00
2015,09,20,13,28,11.00
2015,09,20,13,29,11.00
2015,09,20,13,30,10.90
2015,09,20,13,31,10.90
2015,09,20,13,32,10.90
2015,09,20,13,33,10.80
2015,09,20,13,34,10.80
2015,09,20,13,35,10.80
2015,09,20,13,36,10.80
2015,09,20,13,37,10.80
2015,09,20,13,38,10.80
2015,09,20,13,39,10.80
2015,09,20,13,40,10.80
2015,09,20,13,41,10.80
2015,09,20,13,42,10.80
2015,09,20,13,43,10.80
2015,09,20,13,44,10.80
2015,09,20,13,45,10.80
2015,09,20,13,46,10.80
2015,09,20,13,47,10.80
2015,09,20,13,48,10.80
2015,09,20,13,49,10.80
2015,09,20,13,50,10.80
2015,09,20,13,51,10.80
2015,09,20,13,52,10.80
2015,09,20,13,53,10.80
2015,09,20,13,54,10.80
2015,09,20,13,55,10.80
2015,09,20,13,56,10.80
2015,09,20,13,57,10.80
2015,09,20,13,58,10.80
2015,09,20,13,59,10.80
2015,09,20,14,00,10.90
2015,09,20,14,01,10.90
2015,09,20,14,02,10.90
2015,09,20,14,03,10.90
2015,09,20,14,04,10.90
2015,09,20,14,05,10.90
2015,09,20,14,06,11.00
2015,09,20,14,07,11.10
2015,09,20,14,08,11.10
2015,09,20,14,09,11.10
2015,09,20,14,10,11.10
2015,09,20,14,11,11.20
2015,09,20,14,12,11.20
2015,09,20,14,13,11.20
2015,09,20,14,14,11.30
2015,09,20,14,15,11.30
2015,09,20,14,16,11.20
2015,09,20,14,17,11.20
2015,09,20,14,18,11.30
2015,09,20,14,19,11.20
2015,09,20,14,20,11.20
2015,09,20,14,21,11.20
2015,09,20,14,22,11.20
2015,09,20,14,23,11.20
2015,09,20,14,24,11.20
2015,09,20,14,25,11.10
2015,09,20,14,26,11.10
2015,09,20,14,27,11.10
2015,09,20,14,28,11.10
2015,09,20,14,29,11.10
2015,09,20,14,30,11.10
2015,09,20,14,31,11.10
2015,09,20,14,32,11.10
2015,09,20,14,33,11.10
2015,09,20,14,34,11.10
2015,09,20,14,35,11.10
2015,09,20,14,36,11.00
2015,09,20,14,37,11.10
2015,09,20,14,38,11.00
2015,09,20,14,39,11.00
2015,09,20,14,40,11.10
2015,09,20,14,41,11.10
2015,09,20,14,42,11.00
2015,09,20,14,43,11.00
2015,09,20,14,44,11.10
2015,09,20,14,45,11.10
2015,09,20,14,46,11.10
2015,09,20,14,47,11.10
2015,09,20,14,48,11.10
2015,09,20,14,49,11.10
2015,09,20,14,50,11.10
2015,09,20,14,51,11.10
2015,09,20,14,52,11.10
2015,09,20,14,53,11.10
2015,09,20,14,54,11.10
2015,09,20,14,55,11.10
2015,09,20,14,56,11.20
2015,09,20,14,57,11.20
2015,09,20,14,58,11.20
2015,09,20,14,59,11.20
2015,09,20,15,00,11.30
2015,09,20,15,01,11.30
2015,09,20,15,02,11.40
2015,09,20,15,03,11.40
2015,09,20,15,04,11.50
2015,09,20,15,05,11.50
2015,09,20,15,06,11.60
2015,09,20,15,07,11.60
2015,09,20,15,08,11.60
2015,09,20,15,09,11.60
2015,09,20,15,10,11.70
2015,09,20,15,11,11.70
2015,09,20,15,12,11.80
2015,09,20,15,13,11.80
2015,09,20,15,14,11.90
2015,09,20,15,15,12.00
2015,09,20,15,16,12.00
2015,09,20,15,17,12.00
2015,09,20,15,18,12.00
2015,09,20,15,19,12.10
2015,09,20,15,20,12.10
2015,09,20,15,21,12.10
2015,09,20,15,22,12.10
2015,09,20,15,23,12.10
2015,09,20,15,24,12.10
2015,09,20,15,25,12.10
2015,09,20,15,26,12.10
2015,09,20,15,27,12.00
2015,09,20,15,28,12.00
2015,09,20,15,29,12.00
2015,09,20,15,30,12.10
2015,09,20,15,31,12.10
2015,09,20,15,32,12.10
2015,09,20,15,33,12.20
2015,09,20,15,34,12.20
2015,09,20,15,35,12.20
2015,09,20,15,36,12.30
2015,09,20,15,37,12.30
2015,09,20,15,38,12.40
2015,09,20,15,39,12.40
2015,09,20,15,40,12.40
2015,09,20,15,41,12.50
2015,09,20,15,42,12.50
2015,09,20,15,43,12.50
2015,09,20,15,44,12.60
2015,09,20,15,45,12.60
2015,09,20,15,46,12.60
2015,09,20,15,47,12.60
2015,09,20,15,48,12.60
2015,09,20,15,49,12.70
2015,09,20,15,50,12.70
2015,09,20,15,51,12.80
2015,09,20,15,52,12.80
2015,09,20,15,53,12.90
2015,09,20,15,54,12.90
2015,09,20,15,55,13.00
2015,09,20,15,56,13.00
2015,09,20,15,57,13.10
2015,09,20,15,58,13.10
2015,09,20,15,59,13.20
2015,09,20,16,00,13.20
2015,09,20,16,01,13.20
2015,09,20,16,02,13.30
2015,09,20,16,03,13.30
2015,09,20,16,04,13.30
2015,09,20,16,05,13.30
2015,09,20,16,06,13.30
2015,09,20,16,07,13.30
2015,09,20,16,08,13.40
2015,09,20,16,09,13.40
2015,09,20,16,10,13.40
2015,09,20,16,11,13.40
2015,09,20,16,12,13.40
2015,09,20,16,13,13.40
2015,09,20,16,14,13.40
2015,09,20,16,15,13.40
2015,09,20,16,16,13.40
2015,09,20,16,17,13.30
2015,09,20,16,18,13.40
2015,09,20,16,19,13.40
2015,09,20,16,20,13.40
2015,09,20,16,21,13.40
2015,09,20,16,22,13.40
2015,09,20,16,23,13.40
2015,09,20,16,24,13.40
2015,09,20,16,25,13.40
2015,09,20,16,26,13.40
2015,09,20,16,27,13.40
2015,09,20,16,28,13.40
2015,09,20,16,29,13.40
2015,09,20,16,30,13.40
2015,09,20,16,31,13.40
2015,09,20,16,32,13.40
2015,09,20,16,33,13.40
2015,09,20,16,34,13.30
2015,09,20,16,35,13.30
2015,09,20,16,36,13.40
2015,09,20,16,37,13.40
2015,09,20,16,38,13.40
2015,09,20,16,39,13.40
2015,09,20,16,40,13.40
2015,09,20,16,41,13.40
2015,09,20,16,42,13.30
2015,09,20,16,43,13.30
2015,09,20,16,44,13.30
2015,09,20,16,45,13.30
2015,09,20,16,46,13.40
2015,09,20,16,47,13.40
2015,09,20,16,48,13.40
2015,09,20,16,49,13.40
2015,09,20,16,50,13.40
2015,09,20,16,51,13.40
2015,09,20,16,52,13.40
2015,09,20,16,53,13.40
2015,09,20,16,54,13.40
2015,09,20,16,55,13.40
2015,09,20,16,56,13.40
2015,09,20,16,57,13.40
2015,09,20,16,58,13.40
2015,09,20,16,59,13.40
2015,09,20,17,00,13.40
2015,09,20,17,01,13.50
2015,09,20,17,02,13.50
2015,09,20,17,03,13.50
2015,09,20,17,04,13.50
2015,09,20,17,05,13.50
2015,09,20,17,06,13.50
2015,09,20,17,07,13.60
2015,09,20,17,08,13.60
2015,09,20,17,09,13.60
2015,09,20,17,10,13.60
2015,09,20,17,11,13.60
2015,09,20,17,12,13.60
2015,09,20,17,13,13.60
2015,09,20,17,14,13.60
2015,09,20,17,15,13.60
2015,09,20,17,16,13.60
2015,09,20,17,17,13.60
2015,09,20,17,18,13.50
2015,09,20,17,19,13.50
2015,09,20,17,20,13.50
2015,09,20,17,21,13.50
2015,09,20,17,22,13.50
2015,09,20,17,23,13.40
2015,09,20,17,24,13.40
2015,09,20,17,25,13.40
2015,09,20,17,26,13.40
2015,09,20,17,27,13.40
2015,09,20,17,28,13.40
2015,09,20,17,29,13.40
2015,09,20,17,30,13.40
2015,09,20,17,31,13.40
2015,09,20,17,32,13.40
2015,09,20,17,33,13.30
2015,09,20,17,34,13.30
2015,09,20,17,35,13.30
2015,09,20,17,36,13.30
2015,09,20,17,37,13.30
2015,09,20,17,38,13.40
2015,09,20,17,39,13.30
2015,09,20,17,40,13.30
2015,09,20,17,41,13.30
2015,09,20,17,42,13.30
2015,09,20,17,43,13.30
2015,09,20,17,44,13.30
2015,09,20,17,45,13.30
2015,09,20,17,46,13.30
2015,09,20,17,47,13.30
2015,09,20,17,48,13.30
2015,09,20,17,49,13.30
2015,09,20,17,50,13.30
2015,09,20,17,51,13.30
2015,09,20,17,52,13.30
2015,09,20,17,53,13.30
2015,09,20,17,54,13.30
2015,09,20,17,55,13.20
2015,09,20,17,56,13.20
2015,09,20,17,57,13.20
2015,09,20,17,58,13.20
2015,09,20,17,59,13.20
2015,09,20,18,00,13.20
2015,09,20,18,01,13.20
2015,09,20,18,02,13.20
2015,09,20,18,03,13.20
2015,09,20,18,04,13.20
2015,09,20,18,05,13.20
2015,09,20,18,06,13.20
2015,09,20,18,07,13.20
2015,09,20,18,08,13.10
2015,09,20,18,09,13.10
2015,09,20,18,10,13.10
2015,09,20,18,11,13.10
2015,09,20,18,12,13.00
2015,09,20,18,13,13.00
2015,09,20,18,14,13.00
2015,09,20,18,15,13.00
2015,09,20,18,16,13.00
2015,09,20,18,17,13.10
2015,09,20,18,18,13.10
2015,09,20,18,19,13.10
2015,09,20,18,20,13.10
2015,09,20,18,21,13.20
2015,09,20,18,22,13.20
2015,09,20,18,23,13.20
2015,09,20,18,24,13.20
2015,09,20,18,25,13.20
2015,09,20,18,26,13.20
2015,09,20,18,27,13.20
2015,09,20,18,28,13.10
2015,09,20,18,29,13.10
2015,09,20,18,30,13.00
2015,09,20,18,31,13.00
2015,09,20,18,32,12.90
2015,09,20,18,33,12.90
2015,09,20,18,34,12.80
2015,09,20,18,35,12.80
2015,09,20,18,36,12.80
2015,09,20,18,37,12.80
2015,09,20,18,38,12.70
2015,09,20,18,39,12.80
2015,09,20,18,40,12.70
2015,09,20,18,41,12.70
2015,09,20,18,42,12.70
2015,09,20,18,43,12.70
2015,09,20,18,44,12.70
2015,09,20,18,45,12.70
2015,09,20,18,46,12.70
2015,09,20,18,47,12.70
2015,09,20,18,48,12.80
2015,09,20,18,49,12.80
2015,09,20,18,50,12.80
2015,09,20,18,51,12.80
2015,09,20,18,52,12.80
2015,09,20,18,53,12.80
2015,09,20,18,54,12.80
2015,09,20,18,55,12.80
2015,09,20,18,56,12.80
2015,09,20,18,57,12.80
2015,09,20,18,58,12.80
2015,09,20,18,59,12.80
2015,09,20,19,00,12.80
2015,09,20,19,01,12.80
2015,09,20,19,02,12.80
2015,09,20,19,03,12.80
2015,09,20,19,04,12.80
2015,09,20,19,05,12.80
2015,09,20,19,06,12.80
2015,09,20,19,07,12.80
2015,09,20,19,08,12.80
2015,09,20,19,09,12.80
2015,09,20,19,10,12.80
2015,09,20,19,11,12.70
2015,09,20,19,12,12.70
2015,09,20,19,13,12.70
2015,09,20,19,14,12.60
2015,09,20,19,15,12.60
2015,09,20,19,16,12.60
2015,09,20,19,17,12.60
2015,09,20,19,18,12.60
2015,09,20,19,19,12.60
2015,09,20,19,20,12.60
2015,09,20,19,21,12.60
2015,09,20,19,22,12.60
2015,09,20,19,23,12.60
2015,09,20,19,24,12.60
2015,09,20,19,25,12.50
2015,09,20,19,26,12.50
2015,09,20,19,27,12.40
2015,09,20,19,28,12.40
2015,09,20,19,29,12.40
2015,09,20,19,30,12.40
2015,09,20,19,31,12.30
2015,09,20,19,32,12.30
2015,09,20,19,33,12.20
2015,09,20,19,34,12.20
2015,09,20,19,35,12.30
2015,09,20,19,36,12.30
2015,09,20,19,37,12.30
2015,09,20,19,38,12.30
2015,09,20,19,39,12.30